Theta_e
312 310 310 309 311 309 309 311 314 314 316 317 319 321 322 321 320 320 324 327 330 330
309 310 309 310 309 310 310 312 312 313 314 316 318 320 320 322 323 320 324 326 325 327
308 309 309 309 307 307 307 309 311 312 313 315 316 318 318 320 324 323 324 323 324 324
306 307 306 305 305 306 306 307 307 309 310 310 311 313 316 318 322 323 322 319 319 320
303 304 303 303 304 304 303 304 305 306 307 308 309 312 315 317 320 323 321 321 320 319
301 301 301 301 301 302 302 302 303 305 305 306 309 312 314 316 319 324 325 322 323 323
299 300 300 300 300 301 301 302 302 303 305 307 309 313 314 316 318 320 325 328 327 327
299 299 300 299 299 300 301 302 302 303 305 306 309 312 312 316 317 320 319 320 326 327
299 299 299 299 299 298 299 299 301 302 304 305 311 309 309 314 316 319 316 317 322 326
300 300 300 300 301 298 296 298 300 303 305 309 310 307 306 308 315 318 314 316 319 320
302 302 302 301 300 298 297 300 300 304 309 310 318 307 302 306 317 316 311 312 317 316
300 299 299 299 299 296 299 300 302 306 309 313 314 303 303 308 316 316 315 315 316 316
300 299 299 298 297 300 301 301 304 308 309 308 309 303 303 309 314 311 311 312 310 309
300 299 299 299 300 300 300 302 305 305 304 305 304 307 302 304 311 309 308 307 304 305
Wind_Speed
8 5 4 5 4 3 1 2 4 5 6 7 9 9 10 6 6 6 7 8 4 4
7 6 6 5 3 2 2 2 5 6 6 8 10 11 10 9 10 7 8 7 4 3
6 5 3 3 4 4 4 3 5 5 6 7 8 11 12 10 11 8 8 6 5 3
5 4 3 3 4 4 3 5 5 6 9 10 9 11 12 12 12 11 8 6 7 4
5 5 5 5 5 4 5 5 6 8 10 11 12 11 13 12 10 12 11 10 6 7
7 6 7 7 7 5 6 7 6 10 11 12 13 13 13 12 11 11 9 11 11 13
7 7 8 8 7 7 7 7 8 11 11 12 14 15 14 12 10 11 11 12 8 12
8 8 10 9 7 7 7 7 11 11 12 13 14 11 13 12 10 10 8 7 14 16
8 9 10 7 8 7 7 8 10 11 13 15 11 18 18 16 11 11 8 6 5 7
10 11 9 8 10 9 7 9 10 11 14 15 16 19 18 18 11 9 6 6 6 8
12 10 8 9 11 10 6 11 8 13 15 14 13 11 8 9 8 7 4 4 7 9
9 9 10 9 10 7 9 8 10 12 15 10 10 7 6 10 10 11 9 4 5 10
8 9 10 11 9 10 7 10 9 11 5 7 9 4 5 4 7 9 7 10 6 14
9 8 10 10 8 8 10 10 10 3 4 4 5 5 6 7 4 6 9 9 7 8
Wind_Direction
238 232 233 234 239 253 248 282 279 293 294 295 296 296 296 285 264 258 248 255 235 250
243 240 244 261 280 295 300 288 319 304 297 292 297 296 294 293 285 261 253 230 187 191
311 300 315 359 321 325 321 326 316 304 293 290 297 297 294 291 288 274 269 254 233 167
348 343 329 298 298 318 310 300 295 299 289 286 286 284 278 277 282 281 272 238 247 240
297 297 294 283 276 269 271 280 279 283 281 283 280 274 267 274 277 276 272 258 237 245
268 265 259 261 264 259 252 258 269 274 281 284 279 273 270 266 266 271 263 245 229 227
252 256 259 255 257 254 249 261 266 279 278 276 274 265 269 267 253 260 258 238 234 265
256 260 260 262 258 253 245 259 279 281 277 272 265 261 267 257 246 252 225 218 177 226
264 253 252 248 255 256 253 264 275 273 276 275 262 264 255 245 256 243 202 186 188 166
262 252 244 245 255 266 262 279 278 278 276 268 273 263 256 253 252 228 187 179 147 136
271 261 268 275 272 275 271 278 273 279 278 279 281 279 288 191 166 134 142 181 171 139
274 278 278 279 274 272 271 265 272 274 275 271 288 309 245 184 138 133 128 100 100 126
273 273 274 273 270 271 254 269 272 275 293 291 284 308 127 156 133 126 118 98 80 115
272 263 266 270 260 264 266 266 263 264 300 309 327 8 121 111 89 148 125 115 106 125